Flag for Germany Weather past 2 weeks in Crailsheim, Baden-Württemberg, Germany

Now
63 °F

Light rain. Partly sunny.


Feels Like: 63 °F
Forecast: 53 / 67 °F
Wind: 7 mph from West

Location: Niederstetten

Current Time: Sep 30, 2014 at 11:57:31 AM

Latest Report: Sep 30, 2014 at 11:20 AM


Visibility: N/A

Pressure: 30.30 "Hg

Humidity: 83%

Dew point: 57 °F

Location of CrailsheimLocation

Historic Weather in Crailsheim — Graph

°F

Crailsheim temperature yesterday

Maximum temperature yesterday: 75 °F (at 4:20 PM)
Minimum temperature yesterday: 52 °F (at 5:20 AM)
Average temperature yesterday: 63 °F

Past Weeks' High & Low Weather Summary

 TemperatureHumidityPressure
High75 °F (Sep 29, 4:20 PM)100% (Sep 15, 11:20 PM)30.39 "Hg (Sep 15, 11:20 PM)
Low41 °F (Sep 23, 6:56 AM)47% (Sep 29, 1:20 PM)29.89 "Hg (Sep 18, 4:20 AM)
Average58 °F84%30.09 "Hg
* Reported Sep 15 10:20 AM — Sep 30 10:20 AM, Crailsheim, Weather by CustomWeather, © 2014

Note: Actual official high and low records may vary slightly from our data, if they occured in-between our weather recording intervals... More about our weather records

Advertising

Crailsheim weather history for previous 24 hours

 ConditionsComfort  
Time TempWeatherWind HumidityBarometerVisibility
10:20 AM
Sep 30
63 °FBroken clouds.8 mph77%30.30 "HgN/A
9:20 AM61 °FPartly sunny.6 mph83%30.30 "HgN/A
8:20 AM61 °FPartly sunny.5 mph83%30.30 "HgN/A
7:20 AM59 °FPassing clouds.5 mph88%30.27 "HgN/A
6:20 AM61 °FPassing clouds.2 mph83%30.27 "HgN/A
5:20 AM61 °FOvercast.3 mph83%30.27 "HgN/A
4:20 AM61 °FOvercast.1 mph83%30.27 "HgN/A
3:20 AM61 °FPassing clouds.2 mph83%30.27 "HgN/A
2:20 AM63 °FPassing clouds.3 mph77%30.30 "HgN/A
1:20 AM63 °FPartly cloudy.3 mph77%30.27 "HgN/A
12:20 AM61 °FPartly cloudy.1 mph83%30.27 "HgN/A
11:20 PM
Sep 29
61 °FOvercast.1 mph83%30.27 "HgN/A
10:20 PM61 °FPassing clouds.3 mph83%30.27 "HgN/A
9:20 PM63 °FPassing clouds.2 mph77%30.27 "HgN/A
8:20 PM64 °FPassing clouds.3 mph73%30.27 "HgN/A
7:20 PM66 °FBroken clouds.3 mph68%30.27 "HgN/A
6:20 PM70 °FPartly sunny.2 mph60%30.27 "HgN/A
5:54 PM73 °FPartly sunny.3 mph53%30.27 "HgN/A
5:20 PM73 °FPartly sunny.7 mph50%30.27 "HgN/A
4:20 PM75 °FPartly sunny.7 mph50%30.24 "HgN/A
3:20 PM73 °FPartly sunny.6 mph50%30.27 "HgN/A
2:20 PM73 °FPartly sunny.7 mph47%30.27 "HgN/A
1:20 PM73 °FPartly sunny.7 mph47%30.27 "HgN/A
12:20 PM70 °FPartly sunny.5 mph53%30.30 "HgN/A
11:20 AM68 °FPartly sunny.7 mph64%30.30 "HgN/A
Weather by CustomWeather, © 2014

See weather overviewHow to use our weather pages